| time (UTC) | temp C | wind direction | speed KPH | gust KPH | rain 1hr cm | rain 24hr cm | rain mn cm | humidity % | barometer mb |
| 20260503204204 | -17 | 252 | 6.4 | 14.5 | 0.00 | 0.00 | 0.00 | 1016.2 | |
| 20260503203701 | -17 | 264 | 9.7 | 20.9 | 0.00 | 0.00 | 0.00 | 1016.4 | |
| 20260503203159 | -17 | 221 | 12.9 | 17.7 | 0.00 | 0.00 | 0.00 | 1016.4 | |
| 20260503202655 | -17 | 234 | 11.3 | 17.7 | 0.00 | 0.00 | 0.00 | 1016.3 | |
| 20260503202154 | -17 | 262 | 9.7 | 16.1 | 0.00 | 0.00 | 0.00 | 1016.6 | |
| 20260503201652 | -17 | 205 | 8.0 | 12.9 | 0.00 | 0.00 | 0.00 | 1016.7 | |
| 20260503201149 | -17 | 242 | 9.7 | 17.7 | 0.00 | 0.00 | 0.00 | 1016.6 | |
| 20260503200645 | -17 | 208 | 12.9 | 17.7 | 0.00 | 0.00 | 0.00 | 1016.5 | |
| 20260503200141 | -17 | 254 | 9.7 | 22.5 | 0.00 | 0.00 | 0.00 | 1016.9 | |
| 20260503195638 | -17 | 270 | 6.4 | 20.9 | 0.00 | 0.00 | 0.00 | 1017.0 | |
| 20260503195135 | -17 | 179 | 12.9 | 16.1 | 0.00 | 0.00 | 0.00 | 1017.1 | |
| 20260503194632 | -17 | 226 | 9.7 | 17.7 | 0.00 | 0.00 | 0.00 | 1017.1 | |
| 20260503194127 | -17 | 193 | 11.3 | 16.1 | 0.00 | 0.00 | 0.00 | 1017.2 | |
| 20260503193625 | -17 | 254 | 11.3 | 14.5 | 0.00 | 0.00 | 0.00 | 1017.2 | |
| 20260503193120 | -17 | 253 | 12.9 | 20.9 | 0.00 | 0.00 | 0.00 | 1017.2 | |
| 20260503192616 | -17 | 214 | 12.9 | 14.5 | 0.00 | 0.00 | 0.00 | 1017.3 | |
| 20260503192112 | -17 | 222 | 11.3 | 14.5 | 0.00 | 0.00 | 0.00 | 1017.4 | |
| 20260503191609 | -17 | 246 | 8.0 | 20.9 | 0.00 | 0.00 | 0.00 | 1017.5 | |
| 20260503191106 | -17 | 197 | 11.3 | 14.5 | 0.00 | 0.00 | 0.00 | 1017.4 | |
| 20260503190603 | -17 | 214 | 6.4 | 6.4 | 0.00 | 0.00 | 0.00 | 1017.6 | |
| 20260503190100 | -17 | 264 | 12.9 | 17.7 | 0.00 | 0.00 | 0.00 | 1017.6 | |
| 20260503185556 | -17 | 246 | 9.7 | 12.9 | 0.00 | 0.00 | 0.00 | 1017.6 | |
| 20260503185056 | -17 | 279 | 11.3 | 24.1 | 0.00 | 0.00 | 0.00 | 1017.7 | |
| 20260503184552 | -17 | 218 | 3.2 | 12.9 | 0.00 | 0.00 | 0.00 | 1017.8 | |
| 20260503184049 | -17 | 209 | 6.4 | 11.3 | 0.00 | 0.00 | 0.00 | 1018.1 | |
| 20260503183545 | -17 | 149 | 3.2 | 9.7 | 0.00 | 0.00 | 0.00 | 1018.1 | |
| 20260503183043 | -17 | 183 | 8.0 | 12.9 | 0.00 | 0.00 | 0.00 | 1018.2 | |
| 20260503182541 | -17 | 149 | 6.4 | 12.9 | 0.00 | 0.00 | 0.00 | 1018.1 | |
| 20260503182039 | -17 | 212 | 14.5 | 17.7 | 0.00 | 0.00 | 0.00 | 1018.3 | |
| 20260503181530 | -17 | 189 | 9.7 | 17.7 | 0.00 | 0.00 | 0.00 | 1018.4 | |
| 20260503181026 | -17 | 282 | 6.4 | 12.9 | 0.00 | 0.00 | 0.00 | 1018.4 | |
| 20260503180524 | -17 | 295 | 8.0 | 12.9 | 0.00 | 0.00 | 0.00 | 1018.4 | |
| 20260503180020 | -17 | 263 | 8.0 | 12.9 | 0.00 | 0.00 | 0.00 | 1018.5 | |
| 20260503175518 | -17 | 236 | 16.1 | 20.9 | 0.00 | 0.00 | 0.00 | 1018.4 | |
| 20260503175009 | -17 | 271 | 3.2 | 11.3 | 0.00 | 0.00 | 0.00 | 1018.8 | |
| 20260503174507 | -17 | 251 | 6.4 | 14.5 | 0.00 | 0.00 | 0.00 | 1018.8 | |
| 20260503174003 | -17 | 301 | 11.3 | 14.5 | 0.00 | 0.00 | 0.00 | 1019.1 | |
| 20260503173458 | -17 | 287 | 3.2 | 12.9 | 0.00 | 0.00 | 0.00 | 1019.0 | |
| 20260503172955 | -17 | 263 | 11.3 | 20.9 | 0.00 | 0.00 | 0.00 | 1019.0 | |
| 20260503172452 | -17 | 272 | 8.0 | 12.9 | 0.00 | 0.00 | 0.00 | 1019.0 | |
| 20260503171948 | -17 | 210 | 3.2 | 12.9 | 0.00 | 0.00 | 0.00 | 1019.3 | |
| 20260503171445 | -17 | 245 | 1.6 | 6.4 | 0.00 | 0.00 | 0.00 | 1019.2 | |
| 20260503170943 | -17 | 287 | 9.7 | 14.5 | 0.00 | 0.00 | 0.00 | 1019.4 | |
| 20260503170439 | -17 | 252 | 6.4 | 16.1 | 0.00 | 0.00 | 0.00 | 1019.4 | |
| 20260503150831 | 13 | 266 | 4.8 | 11.3 | 0.00 | 0.00 | 0.00 | 44 | 1020.4 |
| 20260503150327 | 12 | 140 | 9.7 | 11.3 | 0.00 | 0.00 | 0.00 | 40 | 1020.5 |
| 20260503140251 | 10 | 256 | 3.2 | 3.2 | 0.00 | 0.00 | 0.00 | 83 | 1020.4 |
| 20260503131221 | 5 | 23 | 0.0 | 0.0 | 0.00 | 0.00 | 0.00 | 99 | 1020.6 |
| 20260503130718 | 5 | 24 | 1.6 | 3.2 | 0.00 | 0.00 | 0.00 | 99 | 1020.8 |
| 20260503130215 | 5 | 23 | 0.0 | 0.0 | 0.00 | 0.00 | 0.00 | 99 | 1020.5 |
| 20260503120141 | 0 | 23 | 0.0 | 0.0 | 0.00 | 0.00 | 0.00 | 99 | 1020.4 |
| 20260503110609 | -1 | 24 | 0.0 | 0.0 | 0.00 | 0.00 | 0.00 | 99 | 1019.6 |
| 20260503110106 | -1 | 24 | 0.0 | 0.0 | 0.00 | 0.00 | 0.00 | 99 | 1019.6 |
| 20260503090444 | 0 | 24 | 0.0 | 0.0 | 0.00 | 0.00 | 0.00 | 99 | 1019.1 |
| 20260503081405 | 0 | 24 | 0.0 | 0.0 | 0.00 | 0.00 | 0.00 | 99 | 1019.1 |
| 20260503080901 | 0 | 24 | 0.0 | 0.0 | 0.00 | 0.00 | 0.00 | 99 | 1019.0 |
| 20260503080358 | 0 | 24 | 0.0 | 0.0 | 0.00 | 0.00 | 0.00 | 99 | 1018.8 |
| 20260503072834 | 1 | 24 | 0.0 | 0.0 | 0.00 | 0.00 | 0.00 | 99 | 1018.7 |
| 20260503072331 | 1 | 24 | 0.0 | 0.0 | 0.00 | 0.00 | 0.00 | 99 | 1018.8 |
| 20260503071827 | 1 | 24 | 0.0 | 0.0 | 0.00 | 0.00 | 0.00 | 99 | 1018.8 |
| 20260503071325 | 1 | 24 | 0.0 | 0.0 | 0.00 | 0.00 | 0.00 | 99 | 1018.9 |
| 20260503070821 | 1 | 24 | 0.0 | 0.0 | 0.00 | 0.00 | 0.00 | 98 | 1018.9 |
| 20260503070319 | 1 | 24 | 0.0 | 0.0 | 0.00 | 0.00 | 0.00 | 98 | 1018.7 |
| 20260503060245 | 2 | 24 | 0.0 | 0.0 | 0.00 | 0.00 | 0.00 | 98 | 1018.6 |
| 20260503054732 | 3 | 25 | 1.6 | 3.2 | 0.00 | 0.00 | 0.00 | 98 | 1018.5 |
| 20260503054229 | 3 | 24 | 1.6 | 3.2 | 0.00 | 0.00 | 0.00 | 98 | 1018.4 |
| 20260503053727 | 3 | 50 | 3.2 | 3.2 | 0.00 | 0.00 | 0.00 | 98 | 1018.3 |
| 20260503053225 | 3 | 75 | 3.2 | 4.8 | 0.00 | 0.00 | 0.00 | 98 | 1018.5 |
| 20260503052721 | 3 | 85 | 3.2 | 3.2 | 0.00 | 0.00 | 0.00 | 98 | 1018.5 |
| 20260503052218 | 3 | 50 | 1.6 | 3.2 | 0.00 | 0.00 | 0.00 | 98 | 1018.5 |
| 20260503051713 | 3 | 270 | 0.0 | 0.0 | 0.00 | 0.00 | 0.00 | 97 | 1018.2 |
| 20260503051211 | 3 | 17 | 1.6 | 3.2 | 0.00 | 0.00 | 0.00 | 97 | 1018.2 |
| 20260503050707 | 3 | 357 | 1.6 | 3.2 | 0.00 | 0.00 | 0.00 | 97 | 1018.2 |
| 20260503050203 | 3 | 346 | 1.6 | 1.6 | 0.00 | 0.00 | 0.00 | 97 | 1018.3 |
| 20260503045700 | 3 | 328 | 1.6 | 1.6 | 0.00 | 0.00 | 0.00 | 96 | 1018.4 |
| 20260503045153 | 2 | 245 | 0.0 | 0.0 | 0.00 | 0.00 | 0.00 | 96 | 1018.2 |
| 20260503044649 | 2 | 245 | 0.0 | 0.0 | 0.00 | 0.00 | 0.00 | 96 | 1018.2 |
| 20260503044147 | 3 | 245 | 0.0 | 0.0 | 0.00 | 0.00 | 0.00 | 96 | 1018.2 |
| 20260503043643 | 3 | 245 | 0.0 | 0.0 | 0.00 | 0.00 | 0.00 | 96 | 1018.1 |
| 20260503043141 | 3 | 245 | 0.0 | 0.0 | 0.00 | 0.00 | 0.00 | 97 | 1018.1 |
| 20260503042637 | 3 | 243 | 0.0 | 0.0 | 0.00 | 0.00 | 0.00 | 97 | 1018.1 |
| 20260503042133 | 3 | 246 | 0.0 | 0.0 | 0.00 | 0.00 | 0.00 | 96 | 1017.9 |
| 20260503041629 | 3 | 246 | 0.0 | 0.0 | 0.00 | 0.00 | 0.00 | 96 | 1017.9 |
| 20260503041127 | 3 | 246 | 0.0 | 0.0 | 0.00 | 0.00 | 0.00 | 96 | 1018.2 |
| 20260503040624 | 3 | 246 | 0.0 | 0.0 | 0.00 | 0.00 | 0.00 | 95 | 1017.9 |
| 20260503040122 | 3 | 246 | 0.0 | 0.0 | 0.00 | 0.00 | 0.00 | 95 | 1017.9 |
| 20260503035618 | 3 | 246 | 0.0 | 0.0 | 0.00 | 0.00 | 0.00 | 94 | 1017.7 |
| 20260503035116 | 3 | 246 | 0.0 | 0.0 | 0.00 | 0.00 | 0.00 | 94 | 1017.7 |
| 20260503034613 | 3 | 246 | 0.0 | 0.0 | 0.00 | 0.00 | 0.00 | 94 | 1017.7 |
| 20260503034110 | 3 | 246 | 0.0 | 0.0 | 0.00 | 0.00 | 0.00 | 94 | 1017.7 |
| 20260503033608 | 3 | 246 | 0.0 | 0.0 | 0.00 | 0.00 | 0.00 | 93 | 1017.7 |
| 20260503033105 | 3 | 246 | 0.0 | 0.0 | 0.00 | 0.00 | 0.00 | 93 | 1017.8 |
| 20260503032603 | 4 | 246 | 0.0 | 0.0 | 0.00 | 0.00 | 0.00 | 93 | 1017.5 |
| 20260503032101 | 4 | 246 | 0.0 | 0.0 | 0.00 | 0.00 | 0.00 | 93 | 1017.6 |
| 20260503031559 | 5 | 246 | 0.0 | 0.0 | 0.00 | 0.00 | 0.00 | 93 | 1017.7 |
| 20260503031056 | 5 | 246 | 0.0 | 0.0 | 0.00 | 0.00 | 0.00 | 93 | 1017.5 |
| 20260503030552 | 5 | 246 | 0.0 | 0.0 | 0.00 | 0.00 | 0.00 | 91 | 1017.7 |
| 20260503030049 | 5 | 246 | 0.0 | 0.0 | 0.00 | 0.00 | 0.00 | 90 | 1017.5 |
| 20260503025545 | 5 | 246 | 0.0 | 0.0 | 0.00 | 0.00 | 0.00 | 91 | 1017.5 |
| 20260503025043 | 5 | 245 | 0.0 | 0.0 | 0.00 | 0.00 | 0.00 | 91 | 1017.6 |
| 20260503024539 | 5 | 246 | 0.0 | 0.0 | 0.00 | 0.00 | 0.00 | 89 | 1017.8 |
| 20260503024037 | 6 | 246 | 0.0 | 0.0 | 0.00 | 0.00 | 0.00 | 89 | 1017.6 |
| 20260503023533 | 6 | 245 | 1.6 | 1.6 | 0.00 | 0.00 | 0.00 | 89 | 1017.5 |
| 20260503023031 | 6 | 246 | 0.0 | 1.6 | 0.00 | 0.00 | 0.00 | 88 | 1017.4 |
| 20260503022526 | 6 | 246 | 0.0 | 0.0 | 0.00 | 0.00 | 0.00 | 88 | 1017.2 |
| 20260503022021 | 6 | 246 | 0.0 | 0.0 | 0.00 | 0.00 | 0.00 | 87 | 1017.2 |
| 20260503021519 | 6 | 246 | 0.0 | 0.0 | 0.00 | 0.00 | 0.00 | 87 | 1017.4 |
| 20260503021015 | 6 | 246 | 0.0 | 0.0 | 0.00 | 0.00 | 0.00 | 86 | 1017.3 |
| 20260503020513 | 6 | 245 | 0.0 | 0.0 | 0.00 | 0.00 | 0.00 | 85 | 1017.4 |
| 20260503020009 | 6 | 245 | 0.0 | 1.6 | 0.00 | 0.00 | 0.00 | 85 | 1017.4 |
| 20260503015506 | 6 | 244 | 1.6 | 1.6 | 0.00 | 0.00 | 0.00 | 85 | 1017.1 |
| 20260503015003 | 6 | 245 | 0.0 | 0.0 | 0.00 | 0.00 | 0.00 | 83 | 1017.1 |
| 20260503014459 | 6 | 245 | 0.0 | 0.0 | 0.00 | 0.00 | 0.00 | 81 | 1017.0 |
| 20260503013957 | 7 | 245 | 0.0 | 0.0 | 0.00 | 0.00 | 0.00 | 80 | 1017.0 |
| 20260503013454 | 7 | 243 | 1.6 | 1.6 | 0.00 | 0.00 | 0.00 | 80 | 1017.1 |
| 20260503012951 | 8 | 243 | 1.6 | 1.6 | 0.00 | 0.00 | 0.00 | 78 | 1016.9 |
| 20260503012449 | 8 | 325 | 0.0 | 0.0 | 0.00 | 0.00 | 0.00 | 72 | 1017.0 |
| 20260503011945 | 8 | 325 | 0.0 | 0.0 | 0.00 | 0.00 | 0.00 | 71 | 1016.8 |
| 20260503011442 | 9 | 326 | 0.0 | 1.6 | 0.00 | 0.00 | 0.00 | 70 | 1016.5 |
| 20260503010939 | 9 | 345 | 1.6 | 3.2 | 0.00 | 0.00 | 0.00 | 69 | 1016.6 |
| 20260503010436 | 10 | 349 | 1.6 | 3.2 | 0.00 | 0.00 | 0.00 | 69 | 1016.7 |
| 20260503005933 | 10 | 14 | 3.2 | 4.8 | 0.00 | 0.00 | 0.00 | 68 | 1016.6 |
| 20260503005430 | 10 | 327 | 1.6 | 3.2 | 0.00 | 0.00 | 0.00 | 67 | 1016.4 |
| 20260503004927 | 10 | 329 | 1.6 | 3.2 | 0.00 | 0.00 | 0.00 | 67 | 1016.5 |
| 20260503004424 | 10 | 356 | 1.6 | 3.2 | 0.00 | 0.00 | 0.00 | 66 | 1016.4 |
| 20260503003921 | 10 | 347 | 4.8 | 6.4 | 0.00 | 0.00 | 0.00 | 66 | 1016.4 |
| 20260503003418 | 10 | 337 | 3.2 | 4.8 | 0.00 | 0.00 | 0.00 | 66 | 1016.3 |
| 20260503002915 | 10 | 356 | 3.2 | 3.2 | 0.00 | 0.00 | 0.00 | 66 | 1016.3 |
| 20260503002412 | 10 | 19 | 1.6 | 3.2 | 0.00 | 0.00 | 0.00 | 66 | 1016.3 |
| 20260503001909 | 10 | 23 | 3.2 | 3.2 | 0.00 | 0.00 | 0.00 | 65 | 1016.3 |
| 20260503001404 | 10 | 330 | 3.2 | 4.8 | 0.00 | 0.00 | 0.00 | 65 | 1016.1 |
| 20260503000903 | 11 | 0 | 1.6 | 3.2 | 0.00 | 0.00 | 0.00 | 64 | 1015.9 |
| 20260503000400 | 11 | 1 | 4.8 | 12.9 | 0.00 | 0.00 | 0.00 | 63 | 1016.0 |
| 20260502235857 | 11 | 338 | 8.0 | 11.3 | 0.00 | 0.00 | 0.00 | 62 | 1016.0 |
| 20260502235354 | 11 | 9 | 9.7 | 11.3 | 0.00 | 0.00 | 0.00 | 61 | 1016.0 |
| 20260502234851 | 11 | 346 | 8.0 | 11.3 | 0.00 | 0.00 | 0.00 | 60 | 1016.0 |
| 20260502234348 | 12 | 14 | 11.3 | 12.9 | 0.00 | 0.00 | 0.00 | 58 | 1015.7 |
| 20260502233844 | 12 | 8 | 4.8 | 6.4 | 0.00 | 0.00 | 0.00 | 56 | 1015.5 |
| 20260502233340 | 12 | 352 | 4.8 | 6.4 | 0.00 | 0.00 | 0.00 | 55 | 1015.8 |
| 20260502232838 | 12 | 335 | 6.4 | 6.4 | 0.00 | 0.00 | 0.00 | 55 | 1015.7 |
| 20260502232334 | 12 | 349 | 8.0 | 11.3 | 0.00 | 0.00 | 0.00 | 53 | 1015.7 |
| 20260502231830 | 12 | 324 | 3.2 | 6.4 | 0.00 | 0.00 | 0.00 | 53 | 1015.7 |
| 20260502231328 | 13 | 333 | 4.8 | 6.4 | 0.00 | 0.00 | 0.00 | 51 | 1015.5 |
| 20260502230826 | 13 | 4 | 4.8 | 4.8 | 0.00 | 0.00 | 0.00 | 51 | 1015.6 |
| 20260502230324 | 13 | 338 | 6.4 | 11.3 | 0.00 | 0.00 | 0.00 | 50 | 1015.5 |
| 20260502225820 | 13 | 322 | 6.4 | 6.4 | 0.00 | 0.00 | 0.00 | 50 | 1015.5 |
| 20260502225317 | 13 | 328 | 8.0 | 12.9 | 0.00 | 0.00 | 0.00 | 50 | 1015.6 |
| 20260502224813 | 13 | 7 | 4.8 | 9.7 | 0.00 | 0.00 | 0.00 | 49 | 1015.4 |
| 20260502224310 | 13 | 335 | 1.6 | 6.4 | 0.00 | 0.00 | 0.00 | 48 | 1015.6 |
| 20260502223808 | 13 | 331 | 6.4 | 9.7 | 0.00 | 0.00 | 0.00 | 48 | 1015.5 |
| 20260502223306 | 13 | 324 | 8.0 | 14.5 | 0.00 | 0.00 | 0.00 | 48 | 1015.5 |
| 20260502222802 | 13 | 302 | 3.2 | 11.3 | 0.00 | 0.00 | 0.00 | 48 | 1015.5 |
| 20260502222254 | 13 | 325 | 8.0 | 16.1 | 0.00 | 0.00 | 0.00 | 50 | 1015.4 |
| 20260502221750 | 13 | 290 | 8.0 | 11.3 | 0.00 | 0.00 | 0.00 | 49 | 1015.3 |
| 20260502221246 | 13 | 67 | 6.4 | 9.7 | 0.00 | 0.00 | 0.00 | 51 | 1015.4 |
| 20260502220744 | 13 | 1 | 6.4 | 9.7 | 0.00 | 0.00 | 0.00 | 52 | 1015.6 |
| 20260502220239 | 13 | 339 | 9.7 | 16.1 | 0.00 | 0.00 | 0.00 | 52 | 1015.6 |
| 20260502215736 | 13 | 32 | 6.4 | 9.7 | 0.00 | 0.00 | 0.00 | 52 | 1015.6 |
| 20260502215234 | 13 | 355 | 6.4 | 11.3 | 0.00 | 0.00 | 0.00 | 51 | 1015.4 |
| 20260502214731 | 13 | 10 | 11.3 | 16.1 | 0.00 | 0.00 | 0.00 | 52 | 1015.5 |
| 20260502214227 | 13 | 34 | 6.4 | 11.3 | 0.00 | 0.00 | 0.00 | 52 | 1015.6 |
| 20260502213725 | 13 | 10 | 8.0 | 12.9 | 0.00 | 0.00 | 0.00 | 52 | 1015.4 |
| 20260502213222 | 12 | 7 | 6.4 | 11.3 | 0.00 | 0.00 | 0.00 | 52 | 1015.5 |
| 20260502212720 | 13 | 321 | 8.0 | 12.9 | 0.00 | 0.00 | 0.00 | 51 | 1015.5 |
| 20260502212218 | 12 | 346 | 8.0 | 11.3 | 0.00 | 0.00 | 0.00 | 52 | 1015.5 |
| 20260502211714 | 12 | 344 | 11.3 | 12.9 | 0.00 | 0.00 | 0.00 | 52 | 1015.6 |
| 20260502211211 | 12 | 336 | 3.2 | 6.4 | 0.00 | 0.00 | 0.00 | 52 | 1015.5 |
| 20260502210708 | 12 | 342 | 11.3 | 12.9 | 0.00 | 0.00 | 0.00 | 52 | 1015.6 |
| 20260502210205 | 12 | 335 | 3.2 | 9.7 | 0.00 | 0.00 | 0.00 | 51 | 1015.6 |
| 20260502205702 | 12 | 321 | 1.6 | 12.9 | 0.00 | 0.00 | 0.00 | 54 | 1015.6 |
| 20260502205153 | 13 | 48 | 11.3 | 14.5 | 0.00 | 0.00 | 0.00 | 52 | 1015.7 |
| 20260502204650 | 13 | 315 | 8.0 | 11.3 | 0.00 | 0.00 | 0.00 | 52 | 1015.5 |